TimeADT,TemperatureF,Dew PointF,Humidity,Sea Level PressureIn,VisibilityMPH,Wind Direction,Wind SpeedMPH,Gust SpeedMPH,PrecipitationIn,Events,Conditions,WindDirDegrees,DateUTC
12:00 AM,23.0,19.4,86,30.03,15.0,West,5.8,-,N/A,,Clear,260,2013-03-31 03:00:00
1:00 AM,23.0,17.6,80,30.04,15.0,West,4.6,-,N/A,,Clear,260,2013-03-31 04:00:00
2:00 AM,23.0,17.6,80,30.06,15.0,West,5.8,-,N/A,,Clear,270,2013-03-31 05:00:00
3:00 AM,20,16,78,30.06,15,Calm,Calm,,,,,,2013-03-31 06:00:00
3:00 AM,21.2,15.8,80,30.06,15.0,Calm,Calm,-,N/A,,Clear,0,2013-03-31 06:00:00
4:00 AM,21.2,14.0,74,30.06,15.0,WNW,4.6,-,N/A,,Clear,290,2013-03-31 07:00:00
5:00 AM,23.0,12.2,63,30.06,15.0,NW,2.3,-,N/A,,Clear,310,2013-03-31 08:00:00
6:00 AM,17.6,14.0,86,30.07,15.0,WNW,4.6,-,N/A,,Partly Cloudy,290,2013-03-31 09:00:00
7:00 AM,17.6,14.0,86,30.09,15.0,WNW,3.5,-,N/A,,Partly Cloudy,300,2013-03-31 10:00:00
8:00 AM,21.2,15.8,80,30.10,15.0,Calm,Calm,-,N/A,,Partly Cloudy,0,2013-03-31 11:00:00
9:00 AM,28,17,51,30.12,15,WSW,6.9,,,,Scattered Clouds,240,2013-03-31 12:00:00
9:00 AM,28.4,17.6,64,30.12,15.0,WSW,6.9,-,N/A,,Partly Cloudy,240,2013-03-31 12:00:00
10:00 AM,33.8,17.6,52,30.12,15.0,SW,4.6,-,N/A,,Partly Cloudy,220,2013-03-31 13:00:00
11:00 AM,37.4,12.2,36,30.13,15.0,South,2.3,-,N/A,,Partly Cloudy,190,2013-03-31 14:00:00
12:00 PM,39.2,17.6,42,30.13,15.0,South,4.6,-,N/A,,Partly Cloudy,190,2013-03-31 15:00:00
1:00 PM,39.2,15.8,39,30.13,15.0,SSE,4.6,-,N/A,,Partly Cloudy,150,2013-03-31 16:00:00
2:00 PM,41.0,17.6,39,30.11,15.0,SSE,6.9,-,N/A,,Partly Cloudy,160,2013-03-31 17:00:00
3:00 PM,41,12,18,30.11,15,SSW,4.6,,,,Clear,200,2013-03-31 18:00:00
3:00 PM,41.0,12.2,31,30.10,15.0,SW,3.5,-,N/A,,Partly Cloudy,220,2013-03-31 18:00:00
4:00 PM,42.8,12.2,29,30.09,15.0,South,3.5,-,N/A,,Partly Cloudy,180,2013-03-31 19:00:00
5:00 PM,42.8,12.2,29,30.09,15.0,East,4.6,-,N/A,,Partly Cloudy,90,2013-03-31 20:00:00
6:00 PM,42.8,15.8,34,30.09,15.0,ENE,4.6,-,N/A,,Partly Cloudy,70,2013-03-31 21:00:00
7:00 PM,41.0,12.2,31,30.09,15.0,ESE,3.5,-,N/A,,Partly Cloudy,110,2013-03-31 22:00:00
7:48 PM,35.6,17.6,48,30.10,15.0,SE,8.1,-,N/A,,Partly Cloudy,140,2013-03-31 22:48:00
8:00 PM,33.8,19.4,56,30.10,15.0,SSE,5.8,-,N/A,,Partly Cloudy,150,2013-03-31 23:00:00
9:00 PM,32,19,45,30.10,15,ESE,8.1,,,,Clear,120,2013-04-01 00:00:00
9:00 PM,32.0,19.4,60,30.10,15.0,ESE,6.9,-,N/A,,Partly Cloudy,120,2013-04-01 00:00:00
10:00 PM,32.0,15.8,51,30.11,15.0,SE,10.4,-,N/A,,Partly Cloudy,130,2013-04-01 01:00:00
11:00 PM,30.2,17.6,60,30.09,15.0,ESE,8.1,-,N/A,,Scattered Clouds,120,2013-04-01 02:00:00